Location: Chrząstowo
(52.0654°N, 17.1290°E)
Time: 00:35:13
(UTC+01:00)

ISS - Pass Details

Date: 31 January 2019
Orbit: 403 x 411 km, 51.6° (Epoch: 20 February)

Event Time Altitude Azimuth Distance (km) Brightness Sun altitude
Rises 18:10:17 0° 265° (W) 2,335 2.0 -14.4°
Reaches altitude 10° 18:12:22 10° 265° (W) 1,476 0.4 -14.7°
Maximum altitude 18:15:41 85° 181° (S) 418 -3.9 -15.2°
Enters shadow 18:16:54 36° 92° (E) 669 -3.3 -15.4°
